Location: Black Creek
(40.9000°S, 175.5500°E)
Time: 19:29:50
(UTC+00:00)

Vanguard 3 - All Passes

Search period start: 07 November 2024 00:00
Search period end: 17 November 2024 00:00
Orbit: 508 x 3221 km, 33.3° (Epoch: 06 November)

Date Brightness Start Highest point End Pass type
(mag) Time Alt. Az. Time Alt. Az. Time Alt. Az.
07 Nov - 14:13:13 10° NNW 14:19:29 29° NE 14:29:18 10° E visible
07 Nov - 16:21:51 10° WNW 16:30:58 58° NNE 16:46:39 10° E visible
07 Nov - 18:32:37 10° W 18:44:47 61° N 19:03:18 10° ENE daylight
07 Nov - 20:45:10 10° W 20:59:29 43° NNW 21:17:11 10° NE daylight
07 Nov - 23:02:03 10° W 23:13:21 20° NW 23:25:01 10° N daylight
08 Nov - 12:57:31 10° NNE 13:00:48 14° NE 13:04:51 10° ENE visible
08 Nov - 15:03:32 10° NW 15:10:50 45° NNE 15:23:19 10° E visible
08 Nov - 17:13:19 10° WNW 17:23:24 62° N 17:40:18 10° ENE daylight
08 Nov - 19:24:44 10° W 19:37:39 53° NNW 19:55:58 10° NE daylight
08 Nov - 21:38:34 10° W 21:52:02 30° NW 22:07:30 10° NNE daylight
09 Nov - 13:46:03 10° NNW 13:51:33 28° NE 14:00:03 10° E visible
09 Nov - 15:54:33 10° WNW 16:02:42 56° NNE 16:17:01 10° E visible
09 Nov - 18:05:04 10° W 18:16:02 59° N 18:33:37 10° ENE daylight
09 Nov - 20:17:14 10° W 20:30:23 41° NNW 20:47:38 10° NE daylight
09 Nov - 22:34:00 10° WNW 22:44:16 18° NW 22:55:18 10° N daylight
10 Nov - 12:30:37 10° NNE 12:32:58 12° NE 12:35:42 10° ENE visible
10 Nov - 14:36:21 10° NW 14:42:49 43° NNE 14:53:53 10° E visible
10 Nov - 16:45:57 10° WNW 16:54:59 60° N 17:10:36 10° ENE daylight
10 Nov - 18:57:03 10° W 19:08:45 50° NNW 19:26:15 10° NE daylight
10 Nov - 21:10:36 10° W 21:22:55 28° NW 21:37:48 10° NNE daylight
11 Nov - 13:18:54 10° NNW 13:23:43 25° NE 13:30:56 10° E visible
11 Nov - 15:27:20 10° WNW 15:34:35 54° NNE 15:47:28 10° E visible
11 Nov - 17:37:36 10° W 17:47:27 56° N 18:03:51 10° ENE daylight
11 Nov - 19:49:28 10° W 20:01:24 38° NNW 20:17:51 10° NNE daylight
11 Nov - 22:06:16 10° WNW 22:15:15 16° NW 22:25:10 10° N daylight
12 Nov - 12:04:00 10° NNE 12:05:11 11° NE 12:06:27 10° ENE visible
12 Nov - 14:09:10 10° NW 14:14:55 40° NNE 14:24:36 10° E visible
12 Nov - 16:18:39 10° WNW 16:26:42 58° N 16:40:54 10° ENE visible
12 Nov - 18:29:29 10° W 18:40:01 47° NNW 18:56:24 10° NE daylight
12 Nov - 20:42:50 10° W 20:53:56 26° NNW 21:07:50 10° NNE daylight
13 Nov - 12:51:45 10° NNW 12:55:57 23° NE 13:02:01 10° E visible
13 Nov - 15:00:07 10° WNW 15:06:36 52° N 15:17:59 10° E visible
13 Nov - 17:10:12 10° W 17:19:01 53° N 17:34:01 10° ENE daylight
13 Nov - 19:21:51 10° W 19:32:35 35° NNW 19:47:53 10° NNE daylight
13 Nov - 21:38:58 10° WNW 21:46:18 14° NW 21:54:31 10° NNW daylight
14 Nov - 13:42:01 10° NW 13:47:08 38° NNE 13:55:28 10° E visible
14 Nov - 15:51:23 10° WNW 15:58:34 54° N 16:11:16 10° ENE visible
14 Nov - 18:02:02 10° W 18:11:26 43° NNW 18:26:28 10° NE daylight
14 Nov - 20:15:18 10° WNW 20:25:05 23° NNW 20:37:37 10° N daylight
15 Nov - 12:24:36 10° NNW 12:28:15 21° NNE 12:33:16 10° E visible
15 Nov - 14:32:56 10° WNW 14:38:42 49° N 14:48:39 10° E visible
15 Nov - 16:42:54 10° W 16:50:44 49° N 17:04:13 10° ENE daylight
15 Nov - 18:54:24 10° W 19:03:54 31° NNW 19:17:46 10° NNE daylight
15 Nov - 21:12:23 10° WNW 21:17:30 12° NW 21:23:08 10° NNW daylight
16 Nov - 13:14:52 10° NW 13:19:24 35° NNE 13:26:32 10° E visible
16 Nov - 15:24:11 10° WNW 15:30:33 51° N 15:41:43 10° ENE visible
16 Nov - 17:34:41 10° W 17:43:01 39° NNW 17:56:29 10° NE daylight
16 Nov - 19:47:59 10° WNW 19:56:21 20° NNW 20:07:08 10° N daylight
